Date String (YYYY-MM-DD hh:mm:ss) UTC,Instrument flags,Ambient pressure (hPa),Sample flow (lpm),Bypass flow (lpm),Sample temperature (°C),Ambient temperature (°C),ASC tube jacket temperature (°C),LED temperature (°C),Box temperature (°C),Sample RH (%),Span deviation,Mass concentration (μg/m³),Mass concentration (μg/m³),Mass concentration (μg/m³)
DateTimeUTC,F1_M11,P_M11,Q1_M11,Q2_M11,T1_M11,T2_M11,T3_M11,T4_M11,T5_M11,U1_M11,ZSPAN_M11,X0_M11,X2_M11,X1_M11
2022-07-01 02:00:00,,0828.0,4.99,0.00,29.6,28.4,00.0,38.3,31.5,23.1,0000.0,0007.75,0002.87,0001.69
2022-07-01 02:01:00,,0828.0,5.00,0.00,29.6,28.5,00.0,38.3,31.5,22.9,0000.0,0007.88,0002.83,0001.68
2022-07-01 02:02:00,,0828.1,5.00,0.00,29.6,28.5,00.0,38.3,31.6,22.7,0000.0,0007.96,0002.85,0001.68
2022-07-01 02:03:00,,0828.1,5.00,0.00,29.6,28.6,00.0,38.3,31.6,22.7,0000.0,0007.96,0002.84,0001.68
2022-07-01 02:04:00,,0828.1,5.01,0.00,29.7,28.7,00.0,38.4,31.7,22.6,0000.0,0007.98,0002.84,0001.68
2022-07-01 02:05:00,,0828.1,4.99,0.00,29.7,28.8,00.0,38.4,31.7,22.5,0000.0,0008.01,0002.81,0001.67
2022-07-01 02:06:00,,0828.3,4.99,0.00,29.7,28.8,00.0,38.4,31.7,22.5,0000.0,0006.88,0002.73,0001.67
2022-07-01 02:07:00,,0828.2,4.99,0.00,29.7,28.2,00.0,38.4,31.6,22.4,0000.0,0005.62,0002.64,0001.65
2022-07-01 02:08:00,,0828.2,5.01,0.00,29.7,27.7,00.0,38.3,31.5,22.5,0000.0,0005.64,0002.64,0001.67
2022-07-01 02:09:00,,0828.2,5.01,0.00,29.6,27.6,00.0,38.3,31.4,22.4,0000.0,0005.82,0002.69,0001.68
2022-07-01 02:10:00,,0828.3,5.00,0.00,29.6,27.6,00.0,38.3,31.4,22.0,0000.0,0005.91,0002.74,0001.68
2022-07-01 02:11:00,,0828.3,4.99,0.00,29.5,27.7,00.0,38.3,31.4,22.2,0000.0,0005.89,0002.72,0001.67
2022-07-01 02:12:00,,0828.5,5.00,0.00,29.5,27.8,00.0,38.3,31.4,22.3,0000.0,0005.85,0002.78,0001.67
2022-07-01 02:13:00,,0828.8,5.01,0.00,29.5,28.0,00.0,38.3,31.4,22.2,0000.0,0006.57,0002.85,0001.69
2022-07-01 02:14:00,,0828.9,5.00,0.00,29.6,28.1,00.0,38.3,31.5,21.9,0000.0,0007.43,0002.84,0001.70
2022-07-01 02:15:00,,0829.0,4.99,0.00,29.6,28.2,00.0,38.3,31.5,23.5,0000.0,0007.39,0002.84,0001.70
2022-07-01 02:16:00,,0828.9,5.00,0.00,29.6,28.3,00.0,38.3,31.5,24.4,0000.0,0007.61,0003.01,0001.77
2022-07-01 02:17:00,,0828.8,5.01,0.00,29.6,28.4,00.0,38.3,31.5,24.8,0000.0,0008.25,0003.21,0001.86
2022-07-01 02:18:00,,0829.0,5.00,0.00,29.6,28.5,00.0,38.3,31.6,24.8,0000.0,0009.32,0003.39,0001.94
2022-07-01 02:19:00,,0828.8,5.00,0.00,29.7,28.6,00.0,38.4,31.6,24.7,0000.0,0010.60,0003.57,0002.01
2022-07-01 02:20:00,,0828.9,5.00,0.00,29.7,28.6,00.0,38.4,31.6,24.8,0000.0,0011.66,0003.71,0002.11
2022-07-01 02:21:00,,0828.9,4.99,0.00,29.7,28.7,00.0,38.4,31.7,24.8,0000.0,0012.29,0003.85,0002.19
2022-07-01 02:22:00,,0828.9,5.01,0.00,29.7,28.8,00.0,38.4,31.7,24.7,0000.0,0013.52,0004.00,0002.28
2022-07-01 02:23:00,,0828.9,5.01,0.00,29.8,28.8,00.0,38.4,31.8,24.4,0000.0,0015.65,0004.13,0002.38
2022-07-01 02:24:00,,0829.0,4.99,0.00,29.8,28.9,00.0,38.4,31.7,24.3,0000.0,0016.20,0004.25,0002.45
2022-07-01 02:25:00,,0829.0,5.00,0.00,29.8,28.9,00.0,38.5,31.8,24.4,0000.0,0016.80,0004.41,0002.53
2022-07-01 02:26:00,,0829.0,5.00,0.00,29.8,29.0,00.0,38.5,31.8,24.5,0000.0,0017.69,0004.54,0002.60
2022-07-01 02:27:00,,0829.0,5.00,0.00,29.9,29.0,00.0,38.5,31.9,24.6,0000.0,0017.74,0004.59,0002.63
2022-07-01 02:28:00,,0829.0,5.00,0.00,29.9,29.0,00.0,38.5,31.9,24.5,0000.0,0017.58,0004.60,0002.65
2022-07-01 02:29:00,,0829.0,5.00,0.00,29.9,29.1,00.0,38.6,31.9,24.4,0000.0,0017.18,0004.55,0002.67
2022-07-01 02:30:00,,0829.1,4.99,0.00,29.9,29.1,00.0,38.6,32.0,24.3,0000.0,0017.31,0004.50,0002.68
2022-07-01 02:31:00,,0829.1,5.00,0.00,30.0,29.1,00.0,38.6,32.0,24.3,0000.0,0017.10,0004.42,0002.67
2022-07-01 02:32:00,,0829.0,5.00,0.00,30.0,29.2,00.0,38.6,32.0,24.3,0000.0,0017.40,0004.37,0002.69
2022-07-01 02:33:00,,0829.0,5.00,0.00,30.0,29.0,00.0,38.7,32.0,24.2,0000.0,0017.38,0004.34,0002.69
2022-07-01 02:34:00,,0828.9,5.01,0.00,30.0,28.2,00.0,38.6,31.9,23.8,0000.0,0015.93,0004.30,0002.68
2022-07-01 02:35:00,,0829.0,5.00,0.00,30.0,27.7,00.0,38.6,31.8,23.7,0000.0,0015.39,0004.33,0002.68
2022-07-01 02:36:00,,0828.9,5.00,0.00,29.9,27.7,00.0,38.6,31.6,23.7,0000.0,0014.88,0004.27,0002.69
2022-07-01 02:37:00,,0828.9,4.99,0.00,29.8,27.7,00.0,38.6,31.6,23.8,0000.0,0014.08,0004.24,0002.70
2022-07-01 02:38:00,,0829.0,5.00,0.00,29.8,27.9,00.0,38.6,31.6,23.8,0000.0,0013.92,0004.18,0002.70
2022-07-01 02:39:00,,0829.0,4.98,0.00,29.8,28.0,00.0,38.6,31.6,23.9,0000.0,0014.11,0004.15,0002.69
2022-07-01 02:40:00,,0829.1,5.00,0.00,29.8,28.1,00.0,38.6,31.6,23.9,0000.0,0013.93,0004.15,0002.68
2022-07-01 02:41:00,,0829.1,5.00,0.00,29.8,28.3,00.0,38.6,31.7,23.8,0000.0,0013.27,0004.16,0002.68
2022-07-01 02:42:00,,0829.2,5.00,0.00,29.8,28.4,00.0,38.6,31.7,23.9,0000.0,0012.84,0004.16,0002.70
2022-07-01 02:43:00,,0829.3,5.00,0.00,29.8,28.5,00.0,38.6,31.7,23.9,0000.0,0012.28,0004.13,0002.68
2022-07-01 02:44:00,,0829.2,5.00,0.00,29.8,28.6,00.0,38.6,31.8,23.8,0000.0,0012.01,0004.12,0002.68
2022-07-01 02:45:00,,0829.2,5.00,0.00,29.8,28.7,00.0,38.6,31.8,23.8,0000.0,0011.72,0004.10,0002.69
2022-07-01 02:46:00,,0829.2,5.00,0.00,29.8,28.7,00.0,38.6,31.8,23.7,0000.0,0011.43,0004.10,0002.71
2022-07-01 02:47:00,,0829.2,5.01,0.00,29.9,28.8,00.0,38.6,31.8,23.6,0000.0,0011.12,0004.08,0002.69
2022-07-01 02:48:00,,0829.4,4.99,0.00,29.9,28.9,00.0,38.6,31.9,23.5,0000.0,0011.13,0004.08,0002.67
2022-07-01 02:49:00,,0829.3,5.00,0.00,29.9,28.9,00.0,38.6,31.9,23.4,0000.0,0011.14,0004.08,0002.66
2022-07-01 02:50:00,,0829.3,5.00,0.00,29.9,29.0,00.0,38.6,31.9,23.0,0000.0,0011.17,0004.06,0002.63
2022-07-01 02:51:00,,0829.3,5.00,0.00,30.0,29.0,00.0,38.7,31.9,23.1,0000.0,0011.10,0004.05,0002.62
2022-07-01 02:52:00,,0829.3,5.00,0.00,30.0,28.6,00.0,38.6,31.9,22.8,0000.0,0010.45,0003.97,0002.58
2022-07-01 02:53:00,,0829.3,4.99,0.00,29.9,27.9,00.0,38.6,31.7,22.6,0000.0,0010.11,0003.93,0002.51
2022-07-01 02:54:00,,0829.3,5.00,0.00,29.9,27.6,00.0,38.6,31.6,22.5,0000.0,0009.68,0003.93,0002.47
2022-07-01 02:55:00,,0829.3,4.99,0.00,29.8,27.6,00.0,38.6,31.5,22.5,0000.0,0009.44,0003.86,0002.40
2022-07-01 02:56:00,,0829.3,5.00,0.00,29.7,27.7,00.0,38.6,31.5,22.6,0000.0,0009.53,0003.81,0002.34
2022-07-01 02:57:00,,0829.3,4.99,0.00,29.7,27.8,00.0,38.5,31.5,22.6,0000.0,0009.88,0003.67,0002.26
2022-07-01 02:58:00,,0829.3,4.99,0.00,29.7,27.9,00.0,38.5,31.5,22.5,0000.0,0009.78,0003.59,0002.18
2022-07-01 02:59:00,,0829.4,5.00,0.00,29.7,28.1,00.0,38.5,31.6,22.3,0000.0,0009.56,0003.50,0002.10
